Weather in Dubovskiy

Russia / Mari El Republic     56°20′40″N   46°47′59″E
temp.,
°C
wind,
m/s
gust,
m/s
humid.,
%
clouds,
%
prec.,
mm/h
press.,
hPa
HPBL,
m
27 february, sat
sat2700:00−9ese4795100 2.6 997267
03:00−10e359699 3.4 996147
06:00−12ne369698 0.5 996235
09:00−12ne479499 0.9 998410
12:00−12nne5890100 0.1 1000611
15:00−12n6990100 0.3 1004729
18:00−15n41092100 0.1 1006437
21:00−17nnw389698 0.1 1008183
28 february, sun
sun2800:00−20nnw369864 0.0 1008127
03:00−21nnw369953 0.0 1010124
06:00−22nw339937 0.0 101162
09:00−19nw369757 0.0 1011209
12:00−14nnw469395 0.0 1012395
15:00−11nnw479097 0.1 1013553
18:00−15nnw2396100 0.0 101522
21:00−17nnw239899 0.1 101822
1 march, mon
mon100:00−19nnw2210089 0.0 101920
03:00−20nw2210080 0.1 102120
06:00−21nw1210068 0.0 102220
09:00−17w119553 0.0 102285
12:00−13w239073 0.0 1022317
15:00−10sw359287 0.0 1021367
18:00−12sw4995100 0.0 1018203
21:00−9sw51094100 0.1 1016293
2 march, tue
tue200:00−8sw71293100 0.1 1011384
03:00−5sw71494100 0.8 1007571
06:00−2sw71395100 1.1 1002599
09:000w51099100 2.6 1000585
12:000wnw48100100 0.5 998518
15:000wnw5910099 0.7 998584
18:00−1nw4129199 0.5 999690
21:00−2nw4109799 0.6 1001346
3 march, wed
wed300:00−2nw599299 0.4 1001539
03:00−5wnw499698 0.6 1002294
06:00−5nw4996100 0.5 1003404
09:00−4nw599599 1.1 1004533
12:00−2nnw6993100 0.4 1006822
15:00−4nnw61084100 0.6 1008894
18:00−7nw4109036 0.0 1010196
21:00−8nw4119249 0.0 1012300